CW4421 Weather Reports


Display with metric or nautical units.
time (UTC)temp
F
wind
direction
speed
MPH
gust
MPH
rain 1hr
in
rain 24hr
in
rain mn
in
humidity
%
barometer
mb
20260507154529 60 240 8.0 14.0 0.00 0.00 0.00 53 1015.3
20260507153030 59 257 8.0 15.0 0.00 0.00 0.00 54 1015.5
20260507151521 58 266 8.0 16.0 0.00 0.00 0.00 57 1015.6
20260507150018 57 230 9.0 13.0 0.00 0.00 0.00 58 1015.6
20260507144514 55 280 9.0 16.0 0.00 0.00 0.00 62 1015.9
20260507143011 54 255 5.0 14.0 0.00 0.00 0.00 68 1016.2
20260507141507 52 256 7.0 12.0 0.00 0.00 0.00 73 1016.5
20260507140004 51 277 5.0 13.0 0.00 0.00 0.00 74 1016.7
20260507134602 50 250 7.0 13.0 0.00 0.00 0.00 77 1016.5
20260507133057 49 267 8.0 13.0 0.00 0.00 0.00 81 1016.8
20260507131557 47 254 5.0 12.0 0.00 0.00 0.00 85 1016.9
20260507130053 46 261 6.0 11.0 0.00 0.00 0.00 88 1016.8
20260507124555 44 250 4.0 9.0 0.00 0.00 0.00 89 1016.8
20260507123054 43 245 4.0 8.0 0.00 0.00 0.00 90 1016.8
20260507121551 41 244 5.0 7.0 0.00 0.00 0.00 92 1016.7
20260507120052 39 275 2.0 5.0 0.00 0.01 0.00 94 1016.7
20260507114549 38 251 1.0 4.0 0.00 0.01 0.00 92 1016.9
20260507113047 38 260 1.0 2.0 0.00 0.01 0.00 91 1016.8
20260507111547 38 252 1.0 5.0 0.00 0.01 0.00 91 1016.8
20260507110049 39 249 2.0 5.0 0.00 0.01 0.00 90 1016.8
20260507104542 39 267 2.0 3.0 0.00 0.01 0.00 91 1016.8
20260507103041 40 264 2.0 3.0 0.00 0.01 0.00 90 1016.8
20260507101557 40 263 2.0 5.0 0.00 0.01 0.00 90 1016.8
20260507100040 39 267 3.0 6.0 0.00 0.02 0.00 91 1017.0
20260507094543 39 252 2.0 5.0 0.00 0.02 0.00 90 1017.2
20260507093036 39 246 5.0 6.0 0.00 0.02 0.00 89 1017.3
20260507091550 40 268 2.0 4.0 0.00 0.02 0.00 90 1017.3
20260507090031 40 269 1.0 3.0 0.00 0.02 0.00 89 1017.3
20260507084529 41 270 1.0 3.0 0.00 0.02 0.00 89 1017.7
20260507083027 41 269 2.0 2.0 0.00 0.02 0.00 88 1017.9
20260507081535 42 271 1.0 4.0 0.00 0.02 0.00 89 1018.1
20260507080024 41 265 1.0 3.0 0.00 0.03 0.00 89 1018.4
20260507074525 42 275 1.0 2.0 0.00 0.03 0.00 87 1018.4
20260507073020 43 286 1.0 4.0 0.00 0.03 0.00 86 1018.3
20260507071518 43 280 1.0 3.0 0.00 0.03 0.00 85 1018.4
20260507070016 44 284 1.0 5.0 0.00 0.03 0.00 83 1018.4
20260507064515 44 301 2.0 5.0 0.00 0.03 0.00 83 1018.6
20260507063013 44 290 3.0 7.0 0.00 0.03 0.00 83 1018.9
20260507061526 44 280 4.0 6.0 0.00 0.03 0.00 83 1018.9
20260507060008 45 293 2.0 5.0 0.00 0.06 0.00 81 1018.8
20260507054505 45 280 2.0 5.0 0.00 0.06 0.00 81 1018.7
20260507053002 46 285 2.0 5.0 0.00 0.06 0.00 80 1018.5
20260507051558 47 290 1.0 3.0 0.00 0.06 0.00 79 1018.7
20260507050057 48 290 2.0 6.0 0.00 0.07 0.06 77 1018.9
20260507044601 49 289 1.0 5.0 0.00 0.07 0.06 78 1018.8
20260507043055 48 285 1.0 2.0 0.00 0.07 0.06 79 1018.6
20260507041554 49 284 1.0 2.0 0.00 0.07 0.06 79 1018.6
20260507040053 50 291 0.0 1.0 0.00 0.12 0.06 75 1018.5
20260507034553 49 307 2.0 4.0 0.00 0.12 0.06 74 1018.4
20260507033053 49 301 0.0 2.0 0.00 0.12 0.06 77 1018.7
20260507031552 49 285 0.0 2.0 0.00 0.12 0.06 76 1018.7
20260507030100 49 285 0.0 2.0 0.00 0.18 0.06 74 1018.5
20260507024551 50 290 0.0 1.0 0.00 0.18 0.06 70 1018.3
20260507023051 50 299 0.0 0.0 0.00 0.18 0.06 68 1017.9
20260507021607 50 299 0.0 0.0 0.00 0.18 0.06 65 1017.8
20260507020058 51 299 0.0 0.0 0.00 0.18 0.06 65 1017.8
20260507014610 52 299 0.0 2.0 0.00 0.18 0.06 64 1017.8
20260507013053 53 305 0.0 0.0 0.00 0.18 0.06 65 1017.8
20260507011548 53 309 0.0 2.0 0.00 0.18 0.06 65 1017.4
20260507010100 53 321 0.0 2.0 0.00 0.18 0.06 64 1017.3
20260507004548 54 307 0.0 4.0 0.00 0.18 0.06 61 1017.4
20260507003047 56 296 0.0 4.0 0.00 0.18 0.06 59 1017.3
20260507001551 57 360 0.0 6.0 0.00 0.18 0.06 56 1017.3
20260507000047 58 27 0.0 5.0 0.00 0.18 0.06 50 1017.3
20260506234546 59 302 4.0 8.0 0.00 0.18 0.06 48 1017.4
20260506233047 58 18 3.0 8.0 0.00 0.18 0.06 50 1017.5
20260506231545 57 312 2.0 6.0 0.00 0.18 0.06 50 1017.4
20260506230044 58 84 2.0 5.0 0.00 0.18 0.06 50 1017.4
20260506224543 58 78 2.0 6.0 0.00 0.18 0.06 52 1017.4
20260506223042 57 53 3.0 7.0 0.00 0.18 0.06 51 1017.4
20260506221544 57 271 0.0 6.0 0.00 0.18 0.06 52 1017.4
20260506220043 58 78 5.0 9.0 0.00 0.18 0.06 50 1017.4
20260506214544 57 5 1.0 8.0 0.00 0.18 0.06 55 1017.5
20260506213040 57 80 7.0 12.0 0.00 0.18 0.06 51 1017.4
20260506211540 57 22 0.0 9.0 0.00 0.18 0.06 52 1017.6
20260506210043 58 275 3.0 8.0 0.00 0.18 0.06 48 1017.9
20260506204539 57 55 0.0 9.0 0.00 0.18 0.06 50 1017.9
20260506203047 57 17 2.0 7.0 0.00 0.18 0.06 54 1018.1
20260506201545 57 34 2.0 5.0 0.00 0.18 0.06 54 1018.3
20260506200037 57 61 4.0 10.0 0.00 0.18 0.06 50 1018.3
20260506194545 58 57 2.0 6.0 0.00 0.18 0.06 52 1018.5
20260506193042 58 60 3.0 8.0 0.00 0.18 0.06 51 1018.5
20260506191533 56 78 4.0 10.0 0.00 0.18 0.06 51 1018.9
20260506190032 55 136 1.0 10.0 0.00 0.18 0.06 56 1018.9
20260506184530 55 88 3.0 11.0 0.00 0.18 0.06 58 1019.0
20260506183029 55 73 5.0 12.0 0.00 0.18 0.06 56 1019.0
20260506181528 55 94 9.0 13.0 0.00 0.18 0.06 54 1019.1
20260506180026 55 44 6.0 13.0 0.00 0.23 0.06 58 1019.2
20260506174523 54 57 6.0 10.0 0.00 0.23 0.06 62 1019.6
20260506173020 53 67 2.0 13.0 0.00 0.23 0.06 61 1019.6
20260506171520 53 44 4.0 10.0 0.00 0.23 0.06 70 1019.7
20260506170017 52 136 2.0 8.0 0.00 0.23 0.06 71 1019.6
20260506164515 51 69 1.0 7.0 0.00 0.23 0.06 80 1019.7
20260506163029 51 65 4.0 9.0 0.00 0.23 0.06 76 1019.5
20260506161511 50 49 1.0 7.0 0.00 0.23 0.06 82 1019.4
20260506160012 48 51 2.0 5.0 0.00 0.23 0.06 85 1019.7